When you browse on this site, cookies collect data to enhance your experience and personalize the content and advertising you see.
Visit our Privacy Policy to learn more. By continuing to use the site, you agree to this use of cookies and data.

Hourly Weather Gwatemala

Today, 22 September, Tuesday

Time Temperature Precipitation Wind Pressure Humidity
00:00 +16°C° 0 mm 1 mps 637 mmHg 97%
01:00 +16°C° 0 mm 1 mps 637 mmHg 97%
02:00 +16°C° 0 mm 1 mps 636 mmHg 97%
03:00 +16°C° 0 mm 1 mps 636 mmHg 96%
04:00 +16°C° 0 mm 1 mps 636 mmHg 96%
05:00 +15°C° 0 mm 1 mps 636 mmHg 95%
06:00 +15°C° 0 mm 1 mps 636 mmHg 95%
07:00 +18°C° 0 mm 1 mps 637 mmHg 89%
08:00 +20°C° 0 mm 1 mps 638 mmHg 83%
09:00 +22°C° 0 mm 1 mps 639 mmHg 77%
10:00 +24°C° 0 mm 1 mps 639 mmHg 72%
11:00 +25°C° 0 mm 1 mps 639 mmHg 66%
12:00 +27°C° 0 mm 1 mps 639 mmHg 61%
13:00 +26°C° 0.2 mm 1 mps 638 mmHg 63%
14:00 +26°C° 0.2 mm 1 mps 638 mmHg 66%
15:00 +25°C° 0.2 mm 1 mps 637 mmHg 69%
16:00 +24°C° 0.2 mm 1 mps 637 mmHg 78%
17:00 +20°C° 0.2 mm 0 mps 636 mmHg 86%
18:00 +18°C° 0.2 mm 0 mps 636 mmHg 95%
19:00 +18°C° 0.3 mm 0 mps 636 mmHg 96%
20:00 +19°C° 0.3 mm 1 mps 637 mmHg 96%
21:00 +18°C° 0.3 mm 1 mps 637 mmHg 96%
22:00 +18°C° 0.1 mm 1 mps 637 mmHg 96%
23:00 +18°C° 0.1 mm 1 mps 637 mmHg 97%

Tomorrow, 23 September, Wednesday

Time Temperature Precipitation Wind Pressure Humidity
00:00 +18°C° 0.1 mm 1 mps 637 mmHg 97%
01:00 +18°C° 0 mm 1 mps 636 mmHg 97%
02:00 +18°C° 0 mm 1 mps 636 mmHg 97%
03:00 +18°C° 0 mm 1 mps 636 mmHg 97%
04:00 +18°C° 0 mm 1 mps 636 mmHg 97%
05:00 +16°C° 0 mm 1 mps 636 mmHg 97%
06:00 +16°C° 0 mm 1 mps 636 mmHg 97%
07:00 +19°C° 0 mm 1 mps 637 mmHg 91%
08:00 +21°C° 0 mm 1 mps 638 mmHg 85%
09:00 +23°C° 0 mm 1 mps 639 mmHg 78%
10:00 +24°C° 0 mm 1 mps 639 mmHg 72%
11:00 +26°C° 0 mm 1 mps 639 mmHg 66%
12:00 +27°C° 0 mm 1 mps 639 mmHg 60%
13:00 +26°C° 0.3 mm 1 mps 638 mmHg 66%
14:00 +25°C° 0.3 mm 1 mps 637 mmHg 71%
15:00 +25°C° 0.3 mm 1 mps 637 mmHg 77%
16:00 +23°C° 0.3 mm 1 mps 636 mmHg 83%
17:00 +20°C° 0.3 mm 0 mps 636 mmHg 90%
18:00 +18°C° 0.3 mm 0 mps 636 mmHg 96%
19:00 +18°C° 0.4 mm 0 mps 636 mmHg 96%
20:00 +17°C° 0.4 mm 0 mps 637 mmHg 96%
21:00 +17°C° 0.4 mm 0 mps 637 mmHg 96%
22:00 +16°C° 0.4 mm 0 mps 637 mmHg 96%
23:00 +16°C° 0.4 mm 0 mps 637 mmHg 96%

Day after tomorrow, 24 September, Thursday

Time Temperature Precipitation Wind Pressure Humidity
00:00 +18°C° 0.4 mm 1 mps 637 mmHg 96%
01:00 +16°C° 0 mm 1 mps 636 mmHg 96%
02:00 +16°C° 0 mm 1 mps 636 mmHg 96%
03:00 +16°C° 0 mm 1 mps 635 mmHg 96%
04:00 +16°C° 0 mm 1 mps 635 mmHg 96%
05:00 +16°C° 0 mm 1 mps 635 mmHg 96%
06:00 +15°C° 0 mm 1 mps 636 mmHg 96%
07:00 +19°C° 0 mm 1 mps 637 mmHg 90%
08:00 +19°C° 0 mm 0 mps 638 mmHg 83%
09:00 +22°C° 0 mm 0 mps 639 mmHg 77%
10:00 +25°C° 0 mm 1 mps 639 mmHg 72%
11:00 +26°C° 0 mm 1 mps 639 mmHg 67%
12:00 +27°C° 0 mm 1 mps 639 mmHg 62%
13:00 +26°C° 0.6 mm 1 mps 638 mmHg 69%
14:00 +25°C° 0.6 mm 1 mps 637 mmHg 76%
15:00 +24°C° 0.6 mm 1 mps 636 mmHg 82%
16:00 +23°C° 0.4 mm 1 mps 636 mmHg 87%
17:00 +21°C° 0.4 mm 1 mps 636 mmHg 91%
18:00 +20°C° 0.4 mm 1 mps 636 mmHg 96%
19:00 +20°C° 0.4 mm 1 mps 636 mmHg 96%
20:00 +19°C° 0.4 mm 1 mps 637 mmHg 97%
21:00 +19°C° 0.4 mm 1 mps 637 mmHg 97%
22:00 +19°C° 0.2 mm 1 mps 637 mmHg 97%
23:00 +18°C° 0.2 mm 1 mps 637 mmHg 96%

25 September, Friday

Time Temperature Precipitation Wind Pressure Humidity
00:00 +16°C° 0.2 mm 0 mps 637 mmHg 96%
01:00 +18°C° 0.1 mm 1 mps 636 mmHg 96%
02:00 +16°C° 0.1 mm 1 mps 636 mmHg 95%
03:00 +16°C° 0.1 mm 1 mps 636 mmHg 95%
04:00 +16°C° 0 mm 1 mps 636 mmHg 95%
05:00 +16°C° 0 mm 1 mps 636 mmHg 95%
06:00 +16°C° 0 mm 1 mps 636 mmHg 95%
07:00 +19°C° 0 mm 1 mps 637 mmHg 91%
08:00 +21°C° 0 mm 1 mps 638 mmHg 87%
09:00 +23°C° 0 mm 1 mps 639 mmHg 82%
10:00 +23°C° 0.4 mm 1 mps 639 mmHg 81%
11:00 +24°C° 0.4 mm 1 mps 638 mmHg 80%
12:00 +24°C° 0.4 mm 1 mps 638 mmHg 79%
13:00 +24°C° 0.9 mm 1 mps 638 mmHg 81%
14:00 +23°C° 0.9 mm 1 mps 637 mmHg 82%
15:00 +23°C° 0.9 mm 1 mps 636 mmHg 84%
16:00 +22°C° 0.9 mm 1 mps 636 mmHg 88%
17:00 +19°C° 0.9 mm 0 mps 636 mmHg 92%
18:00 +18°C° 0.9 mm 0 mps 636 mmHg 96%
19:00 +17°C° 0.4 mm 0 mps 636 mmHg 96%
20:00 +19°C° 0.4 mm 1 mps 637 mmHg 95%
21:00 +19°C° 0.4 mm 1 mps 637 mmHg 95%
22:00 +18°C° 0 mm 1 mps 637 mmHg 95%
23:00 +18°C° 0 mm 1 mps 637 mmHg 94%

26 September, Saturday

Time Temperature Precipitation Wind Pressure Humidity
00:00 +16°C° 0 mm 1 mps 637 mmHg 94%
01:00 +16°C° 0 mm 1 mps 636 mmHg 94%
02:00 +16°C° 0 mm 1 mps 636 mmHg 94%
03:00 +16°C° 0 mm 1 mps 635 mmHg 94%
04:00 +16°C° 0 mm 1 mps 635 mmHg 94%
05:00 +16°C° 0 mm 1 mps 636 mmHg 94%
06:00 +16°C° 0 mm 1 mps 636 mmHg 94%
07:00 +19°C° 0 mm 1 mps 637 mmHg 87%
08:00 +21°C° 0 mm 1 mps 638 mmHg 80%
09:00 +22°C° 0 mm 0 mps 639 mmHg 74%
10:00 +24°C° 0.4 mm 1 mps 639 mmHg 74%
11:00 +25°C° 0.4 mm 1 mps 639 mmHg 74%
12:00 +25°C° 0.4 mm 1 mps 638 mmHg 75%
13:00 +25°C° 1.8 mm 1 mps 637 mmHg 80%
14:00 +24°C° 1.8 mm 1 mps 637 mmHg 84%
15:00 +23°C° 1.8 mm 1 mps 636 mmHg 89%
16:00 +22°C° 0.9 mm 1 mps 636 mmHg 91%
17:00 +19°C° 0.9 mm 0 mps 636 mmHg 93%
18:00 +18°C° 0.9 mm 0 mps 635 mmHg 95%
19:00 +18°C° 0.7 mm 0 mps 636 mmHg 96%
20:00 +20°C° 0.7 mm 1 mps 636 mmHg 96%
21:00 +19°C° 0.7 mm 1 mps 637 mmHg 96%
22:00 +19°C° 0.5 mm 1 mps 637 mmHg 96%
23:00 +17°C° 0.5 mm 0 mps 636 mmHg 95%

27 September, Sunday

Time Temperature Precipitation Wind Pressure Humidity
00:00 +17°C° 0.5 mm 0 mps 636 mmHg 95%
01:00 +16°C° 0 mm 0 mps 636 mmHg 95%
02:00 +18°C° 0 mm 1 mps 635 mmHg 95%
03:00 +18°C° 0 mm 1 mps 635 mmHg 95%
04:00 +18°C° 0 mm 1 mps 635 mmHg 95%
05:00 +16°C° 0 mm 1 mps 635 mmHg 96%
06:00 +16°C° 0 mm 1 mps 635 mmHg 96%
07:00 +19°C° 0 mm 1 mps 636 mmHg 90%
08:00 +21°C° 0 mm 1 mps 637 mmHg 84%
09:00 +21°C° 0 mm 0 mps 638 mmHg 78%
10:00 +24°C° 0.5 mm 1 mps 638 mmHg 76%
11:00 +25°C° 0.5 mm 1 mps 638 mmHg 74%
12:00 +26°C° 0.5 mm 1 mps 638 mmHg 72%
13:00 +25°C° 1.3 mm 1 mps 637 mmHg 77%
14:00 +24°C° 1.3 mm 1 mps 636 mmHg 82%
15:00 +24°C° 1.3 mm 1 mps 636 mmHg 87%
16:00 +22°C° 0.8 mm 1 mps 635 mmHg 89%
17:00 +19°C° 0.8 mm 0 mps 635 mmHg 92%
18:00 +18°C° 0.8 mm 0 mps 635 mmHg 94%
19:00 +17°C° 0.2 mm 0 mps 635 mmHg 94%
20:00 +17°C° 0.2 mm 0 mps 636 mmHg 94%
21:00 +16°C° 0.2 mm 0 mps 636 mmHg 94%
22:00 +18°C° 0.1 mm 1 mps 636 mmHg 94%
23:00 +18°C° 0.1 mm 1 mps 636 mmHg 93%
Show more